Regional Weather Roundup
Issued by NWS Kansas City/Pleasant Hill, MO

Home | Current Version | Previous Version | Text Only | Print | Product List | Glossary On
Versions: 1 2 3 4 5 6 7 8 9 10 11 12 13 14 15 16 17 18 19 20 21 22 23 24 25 26 27 28 29 30 31 32 33 34 35 36 37 38 39 40 41 42 43 44 45 46 47 48 49 50
000
ASUS43 KEAX 272110
RWREAX

WEATHER ROUNDUP FOR EASTERN KANSAS AND NORTHWEST MISSOURI
NATIONAL WEATHER SERVICE KANSAS CITY/PLEASANT HILL MO
400 PM CDT FRI MAY 27 2016

KSZ040-057-103>105-MOZ028-029-037-043-272200-
...KANSAS CITY METROPOLITAN AREA...

CITY           SKY/WX    TMP DP  RH WIND       PRES   REMARKS
K.C. INTL      TSTM      73  67  81 W3        29.74F
K.C. DOWNTOWN  TSTM      66  63  90 W8        29.72R VSB 3/4
LEES SUMMIT    LGT RAIN  76  67  73 SW15      29.74F
OLATHE - IXD   CLOUDY    74  68  81 S9        29.73F
OLATHE - OJC   PTSUNNY   74  67  78 S8        29.73F
LAWRENCE       CLOUDY    71  67  87 S7        29.72F

$$

MOZ001>008-011>017-020>025-030>033-038>040-044>046-053-054-272200-
...NORTHERN AND CENTRAL MISSOURI...

CITY           SKY/WX    TMP DP  RH WIND       PRES   REMARKS
ST. JOSEPH     CLOUDY    76  63  64 S5        29.73F
MOSBY          CLOUDY    79  64  61 SE6       29.72F
WARRENSBURG    MOSUNNY   77  66  69 S13       29.73F
WHITEMAN AFB   PTSUNNY   78  69  73 SW13      29.73F
CLINTON        CLOUDY    77  68  73 S8        29.76R
SEDALIA        MOSUNNY   82  68  62 S9        29.75F
WARSAW         NOT AVBL
CHILLICOTHE      N/A     82  68  62 SE7       29.74S
KIRKSVILLE     MOSUNNY   82  69  64 SW8       29.76S

$$

MOZ041-047>049-056>058-063>065-088>090-097-272200-
...EASTERN AND SOUTHERN MISSOURI...

CITY           SKY/WX    TMP DP  RH WIND       PRES   REMARKS
ST. LOUIS INTL CLOUDY    78  68  71 S12G21    29.82F
SPIRIT OF STL  CLOUDY    79  70  74 S7        29.79F
COLUMBIA       CLOUDY    78  68  71 S10       29.76F
JEFFERSON CITY CLOUDY    80  68  66 S9        29.75S
ROLLA          CLOUDY    76  68  76 S12       29.77F
SPRINGFIELD    LGT RAIN  72  67  84 S9        29.77F
BRANSON        CLOUDY    72  68  88 SE7       29.81R
JOPLIN         CLOUDY    71  67  87 VRB3      29.75S
WEST PLAINS    CLOUDY    71  66  84 SE9       29.84R

$$

IAZ060-094-KSZ022-034>040-054-083-096-NEZ052-066-093-272200-
...KANSAS...SOUTHEAST NEBRASKA AND IOWA...

CITY           SKY/WX    TMP DP  RH WIND       PRES   REMARKS
TOPEKA         CLOUDY    74  66  76 SE7       29.71F
MANHATTAN      PTSUNNY   78  65  63 SE8       29.68F
EMPORIA        CLOUDY    72  65  78 S14       29.70F
CHANUTE        CLOUDY    74  68  81 S9        29.71F HAZE
WICHITA        TSTM      70  63  78 W3        29.65F
OMAHA          PTSUNNY   78  60  53 NE7       29.72F
LINCOLN        CLOUDY    76  60  57 NE7       29.71F
FALLS CITY     MOSUNNY   76  65  68 E8        29.71F
LAMONI         CLOUDY    76  65  68 W6        29.75F
DES MOINES     PTSUNNY   75  63  66 W10       29.74F

$$




USA.gov is the U.S. government's official web portal to all federal, state and local government web resources and services.